This is the latest recevied weather packets stored in our database for station/object W5CRT. If no packets are shown the sender has not sent any weather packets the latest 10 day(s).
| Time | Temp. | Humidity | Pressure | Rain* | Wind** | Luminosity | Snow |
|---|---|---|---|---|---|---|---|
| 1777834375 | 27.22° C | 33% | 1017.5 hPa | 0 mm | - | 1033 W/m² | - |
| 1777834075 | 27.22° C | 39% | 1017.5 hPa | 0 mm | - | 1037 W/m² | - |
| 1777833772 | 27.22° C | 38% | 1017.5 hPa | 0 mm | - | 651 W/m² | - |
| 1777833468 | 27.22° C | 37% | 1017.5 hPa | 0 mm | - | 1038 W/m² | - |
| 1777833166 | 26.67° C | 35% | 1017.7 hPa | 0 mm | - | 1044 W/m² | - |
| 1777832863 | 27.22° C | 37% | 1018 hPa | 0 mm | - | 1036 W/m² | - |
| 1777832562 | 27.22° C | 35% | 1018 hPa | 0 mm | - | 1033 W/m² | - |
| 1777832258 | 26.67° C | 36% | 1018.2 hPa | 0 mm | - | 1022 W/m² | - |
| 1777831956 | 26.67° C | 37% | 1018.2 hPa | 0 mm | - | 1020 W/m² | - |
| 1777831652 | 26.67° C | 40% | 1018.2 hPa | 0 mm | - | 1006 W/m² | - |
| 1777831350 | 26.67° C | 38% | 1018.4 hPa | 0 mm | - | 1025 W/m² | - |
| 1777831046 | 26.11° C | 36% | 1018.5 hPa | 0 mm | - | 1026 W/m² | - |
| 1777830745 | 26.67° C | 37% | 1018.4 hPa | 0 mm | - | 1019 W/m² | - |
| 1777830440 | 26.67° C | 41% | 1018.7 hPa | 0 mm | - | 1016 W/m² | - |
| 1777830138 | 26.67° C | 37% | 1018.8 hPa | 0 mm | - | 1007 W/m² | - |
| 1777829833 | 26.11° C | 40% | 1019 hPa | 0 mm | - | 1008 W/m² | - |
| 1777829529 | 26.11° C | 38% | 1018.7 hPa | 0 mm | - | 999 W/m² | - |
| 1777829227 | 26.11° C | 39% | 1018.9 hPa | 0 mm | - | 991 W/m² | - |
| 1777828924 | 26.11° C | 37% | 1018.7 hPa | 0 mm | - | 991 W/m² | - |
| 1777828620 | 26.11° C | 40% | 1019 hPa | 0 mm | - | 981 W/m² | - |
| 1777828317 | 26.11° C | 39% | 1019 hPa | 0 mm | - | 972 W/m² | - |
| 1777828014 | 25.56° C | 41% | 1019.1 hPa | 0 mm | - | 965 W/m² | - |
| 1777827711 | 26.11° C | 39% | 1019.1 hPa | 0 mm | - | 955 W/m² | - |
| 1777827408 | 25.56° C | 38% | 1019.2 hPa | 0 mm | - | 946 W/m² | - |
| 1777827104 | 25.56° C | 41% | 1019.3 hPa | 0 mm | - | 938 W/m² | - |
* Rain latest hour (hover to see other rain measurements)
** Current wind speed in m/s (hover to see current wind gust speed)